This demonstration page uses our WeatherBlox Daily Observations layout. Learn more.

40.92945, -100.16068

Hourly Observations for March 9, 2019

Temp ( °F °C ) Dew Point ( °F °C ) Humidity (%) Winds ( mph kmh ) Pressure ( in mb ) Visibility ( mi km ) Precip ( " mm )
12:15 am 00:15 Cloudy with Mist and Fog 34 1 33 0.3 95 95 ESE 15 24 29.62 1003 1.75 2.816352 0 0
12:35 am 00:35 Cloudy with Mist and Fog 34 1 33 0.4 96 96 ESE 17 28 29.59 1002 2 3.218688 0 0
12:55 am 00:55 Cloudy with Mist and Fog 34 1 33 0.3 95 95 ESE 17 28 29.56 1001 1.75 2.816352 0 0
1:15 am 01:15 Cloudy with Mist and Fog 34 1 33 0.5 97 97 ESE 17 28 29.56 1001 1.75 2.816352 0 0
1:35 am 01:35 Cloudy with Light Drizzle 34 1 33 0.5 97 97 Calm 29.62 1003 1.75 2.816352 0 0
1:55 am 01:55 Cloudy with Light Wintry Mix 34 1 33 0.5 97 97 ESE 8 13 29.59 1002 1.5 2.414016 0 0
2:15 am 02:15 Cloudy with Rain 34 1 33 0.5 97 97 ESE 10 17 29.56 1001 1.5 2.414016 0 0
2:35 am 02:35 Cloudy with Light Rain 34 1 33 0.5 97 97 ESE 12 19 29.53 1000 1.5 2.414016 0 0
2:55 am 02:55 Cloudy with Light Drizzle 34 1 33 0.5 97 97 ESE 8 13 29.56 1001 1.5 2.414016 0 0
3:15 am 03:15 Cloudy with Light Rain 34 1 33 0.5 97 97 E 9 15 29.53 1000 1.5 2.414016 0 0
3:35 am 03:35 Cloudy with Drizzle 34 1 33 0.5 97 97 E 9 15 29.53 1000 1.5 2.414016 0.01 0.254
3:55 am 03:55 Cloudy with Rain 34 1 33 0.5 97 97 E 9 15 29.5 999 1.5 2.414016 0.01 0.254
4:15 am 04:15 Cloudy with Rain 34 1 33 0.3 95 95 E 8 13 29.5 999 1.5 2.414016 0 0
4:35 am 04:35 Cloudy with Light Drizzle 33 0.8 32 0.2 96 96 E 10 17 29.47 998 2 3.218688 0.01 0.254
4:55 am 04:55 Cloudy with Mist and Fog 34 1 33 0.3 95 95 E 7 11 29.44 997 2.5 4.02336 0.01 0.254
5:15 am 05:15 Cloudy with Mist and Fog 34 1 33 0.3 95 95 NE 8 13 29.44 997 4 6.437376 0 0
5:35 am 05:35 Cloudy with Mist and Fog 34 1 33 0.3 95 95 NE 7 11 29.44 997 4 6.437376 0 0
5:55 am 05:55 Cloudy with Mist and Fog 34 1 33 0.3 95 95 NNE 7 11 29.44 997 3 4.828032 0 0
6:15 am 06:15 Cloudy with Mist and Fog 34 1 33 0.3 95 95 N 8 13 29.5 999 3 4.828032 0 0
6:35 am 06:35 Cloudy with Mist and Fog 33 0.8 32 0.2 96 96 N 8 13 29.5 999 3 4.828032 0 0
6:55 am 06:55 Cloudy with Mist and Fog 34 0.9 32 0.2 95 95 N 10 17 29.5 999 4 6.437376 0 0
7:15 am 07:15 Cloudy with Mist and Fog 34 1 33 0.3 95 95 NNW 12 19 29.5 999 3 4.828032 0 0
7:35 am 07:35 Cloudy with Mist and Fog 34 1 33 0.3 95 95 NNW 12 19 29.53 1000 5 8.04672 0 0
7:55 am 07:55 Cloudy 34 1 33 0.3 95 95 NW 13 20 29.53 1000 10 16.09344 0 0
8:15 am 08:15 Cloudy 34 1.1 33 0.3 94 94 NNW 14 22 29.56 1001 10 16.09344 0 0
8:35 am 08:35 Cloudy 34 1.2 33 0.3 94 94 NW 14 22 29.56 1001 10 16.09344 0 0
8:55 am 08:55 Cloudy 35 1.5 33 0.4 92 92 NNW 17 28 29.59 1002 10 16.09344 0 0
9:15 am 09:15 Cloudy 35 1.7 32 0 89 89 NW 18 30 29.59 1002 10 16.09344 0 0
9:35 am 09:35 Cloudy 35 1.7 32 0 89 89 NW 22 35 29.59 1002 10 16.09344 0 0
9:55 am 09:55 Cloudy 35 1.7 31 -0.4 86 86 NW 25 41 29.62 1003 10 16.09344 0 0
10:15 am 10:15 Cloudy 36 2 31 -0.6 83 83 NW 26 43 29.62 1003 10 16.09344 0 0
10:35 am 10:35 Cloudy 36 2 30 -1 81 81 NW 35 56 29.62 1003 10 16.09344 0 0
10:55 am 10:55 Cloudy 35 1.5 28 -2 78 78 NW 36 57 29.65 1004 10 16.09344 0 0
11:15 am 11:15 Cloudy 34 1.3 28 -2.3 77 77 NW 37 59 29.65 1004 10 16.09344 0 0
11:35 am 11:35 Mostly Cloudy 34 1 27 -2.6 77 77 NW 32 52 29.68 1005 10 16.09344 0 0
11:55 am 11:55 Mostly Cloudy 33 0.8 26 -3.2 75 75 NW 37 59 29.68 1005 10 16.09344 0 0
12:15 pm 12:15 Cloudy 33 0.7 26 -3.4 74 74 NW 35 56 29.71 1006 10 16.09344 0 0
12:35 pm 12:35 Cloudy 33 0.5 25 -3.7 74 74 NW 33 54 29.71 1006 10 16.09344 0 0
12:55 pm 12:55 Cloudy 32 0.1 25 -3.9 75 75 NW 38 61 29.77 1008 10 16.09344 0 0
1:15 pm 13:15 Cloudy 32 0 24 -4.4 73 73 NW 37 59 29.77 1008 10 16.09344 0 0
1:35 pm 13:35 Cloudy 32 0.1 24 -4.4 72 72 NW 36 57 29.8 1009 10 16.09344 0 0
1:55 pm 13:55 Cloudy 32 0.2 24 -4.5 71 71 NW 39 63 29.8 1009 10 16.09344 0 0
2:15 pm 14:15 Cloudy 32 0 24 -4.7 71 71 NW 39 63 29.8 1009 10 16.09344 0 0
2:35 pm 14:35 Cloudy 32 0.1 25 -3.9 75 75 NW 31 50 29.8 1009 10 16.09344 0 0
2:55 pm 14:55 Cloudy 33 0.3 25 -3.7 75 75 NW 36 57 29.8 1009 10 16.09344 0 0
3:15 pm 15:15 Cloudy 33 0.3 24 -4.2 72 72 NW 41 67 29.8 1009 10 16.09344 0 0
3:35 pm 15:35 Cloudy 33 0.5 25 -4 72 72 NW 33 54 29.83 1010 10 16.09344 0 0
3:55 pm 15:55 Cloudy 34 1 26 -3.6 72 72 NW 36 57 29.83 1010 10 16.09344 0 0
4:15 pm 16:15 Cloudy 34 1 25 -3.7 71 71 NW 44 70 29.83 1010 10 16.09344 0 0
4:35 pm 16:35 Cloudy 34 1 25 -4 70 70 NW 43 69 29.85 1011 10 16.09344 0 0
4:55 pm 16:55 Cloudy 34 1 25 -3.9 70 70 NW 37 59 29.85 1011 10 16.09344 0 0
5:15 pm 17:15 Cloudy 33 0.7 25 -4 71 71 NW 29 46 29.88 1012 10 16.09344 0 0
5:35 pm 17:35 Mostly Cloudy 34 1 25 -4 70 70 NW 30 48 29.88 1012 10 16.09344 0 0
5:55 pm 17:55 Partly Cloudy 33 0.4 24 -4.3 71 71 NW 24 39 29.91 1013 10 16.09344 0 0
6:15 pm 18:15 Sunny 32 0.2 24 -4.5 71 71 NW 25 41 29.94 1014 10 16.09344 0 0
6:35 pm 18:35 Sunny 32 -0.2 24 -4.5 73 73 NW 21 33 29.94 1014 10 16.09344 0 0
6:55 pm 18:55 Clear 32 -0.2 24 -4.6 73 73 NW 20 31 29.97 1015 10 16.09344 0 0
7:15 pm 19:15 Clear 31 -0.5 24 -4.7 74 74 NNW 21 33 30.03 1017 10 16.09344 0 0
7:35 pm 19:35 Clear 31 -0.5 23 -4.9 72 72 NW 20 31 30.03 1017 10 16.09344 0 0
7:55 pm 19:55 Clear 30 -1 23 -5 75 75 NNW 15 24 30.03 1017 10 16.09344 0 0
8:15 pm 20:15 Clear 29 -1.5 23 -5.2 76 76 NNW 13 20 30.03 1017 10 16.09344 0 0
8:35 pm 20:35 Clear 29 -1.8 22 -5.3 77 77 NNW 15 24 30.03 1017 10 16.09344 0 0
8:55 pm 20:55 Clear 28 -2.3 22 -5.7 78 78 NNW 10 17 30.06 1018 10 16.09344 0 0
9:15 pm 21:15 Clear 26 -3.1 21 -6.2 79 79 NW 9 15 30.09 1019 10 16.09344 0 0
9:35 pm 21:35 Clear 26 -3.6 20 -6.5 81 81 WNW 6 9 30.09 1019 10 16.09344 0 0
9:55 pm 21:55 Clear 25 -4.1 20 -6.6 83 83 W 6 9 30.12 1020 10 16.09344 0 0
10:15 pm 22:15 Clear 25 -4.1 20 -6.6 83 83 W 7 11 30.12 1020 10 16.09344 0 0
10:35 pm 22:35 Clear 24 -4.5 19 -7 83 83 WNW 10 17 30.12 1020 10 16.09344 0 0
10:55 pm 22:55 Clear 23 -4.9 19 -7.3 83 83 NW 10 17 30.12 1020 10 16.09344 0 0
11:15 pm 23:15 Clear 22 -5.6 18 -7.8 85 85 WNW 8 13 30.15 1021 10 16.09344 0 0
11:35 pm 23:35 Clear 23 -5.2 18 -7.7 83 83 WNW 12 19 30.18 1022 10 16.09344 0 0
11:55 pm 23:55 Clear 22 -5.4 18 -8 82 82 WNW 10 17 30.18 1022 10 16.09344 0 0

Powered by AerisWeather